[[{"header":{"parameterUnit":"m.s-1","parameterCategory":1,"la1":30.2991,"la2":30.254,"lo1":-89.0895,"lo2":-89.0444,"dy":0.0017,"dx":0.0017,"nx":28,"ny":28,"refTime":"2024-10-08T21:00:00:Z","depth":0,"parameterNumber":2,"parameterNumberName":"U-component_of_WINDS"},"data":[0,0,0,0,0,0,0,0,0,0,0,0,0,0,0,0,0,0,0,0,0,0,0,0,0,0,0,0,0,0,0,0,0,0,0,0,0,0,0,0,0,0,0,0,0,0,0,0,0,0,0,0,0,0,0,0,0,0,-1.3773,-1.3773,0,-1.3752,-1.3752,-1.3752,-1.374,-1.374,-1.374,-1.374,-1.3718,-1.3717,-1.3716,0,0,0,0,0,0,0,0,0,0,0,0,0,-1.3801,-1.3801,-1.3773,-1.3773,-1.3773,-1.3752,-1.3752,-1.3752,-1.374,-1.374,-1.374,-1.374,-1.3718,-1.3717,-1.3716,0,0,0,0,0,0,0,0,0,0,0,0,0,-1.3786,-1.3801,-1.3773,-1.3764,-1.3763,-1.3752,-1.3752,-1.3752,-1.374,-1.374,-1.374,-1.374,-1.3718,-1.3717,-1.3716,-1.3712,0,0,-1.3714,-1.3713,0,0,0,0,0,0,0,0,-1.3787,-1.3785,-1.3766,-1.3765,-1.3764,-1.3749,-1.3754,-1.3739,-1.374,-1.3749,-1.374,-1.374,-1.3728,-1.3726,-1.3722,-1.3711,-1.371,-1.3714,-1.3713,-1.3713,-1.3713,0,0,0,0,0,0,0,-1.3788,-1.3786,-1.3765,-1.3766,-1.3764,-1.3761,-1.3759,-1.3751,-1.3739,-1.3748,-1.3747,-1.3745,-1.3727,-1.3723,-1.3722,-1.371,-1.3714,-1.3713,-1.3712,-1.3712,-1.3694,-1.3694,0,0,0,0,0,0,-1.379,-1.3787,-1.3766,-1.3764,-1.3775,-1.376,-1.3758,-1.3754,-1.3739,-1.3737,-1.3745,-1.3744,-1.3725,-1.3723,-1.3721,-1.3715,-1.3713,-1.3712,-1.3712,-1.3694,-1.3694,-1.3694,0,0,0,0,0,0,-1.3791,-1.3789,-1.3766,-1.3775,-1.3772,-1.376,-1.3755,-1.3753,-1.3749,-1.3737,-1.3734,-1.3743,-1.3725,-1.3722,-1.3715,-1.3714,-1.3712,-1.3711,-1.3694,-1.3694,-1.3694,-1.3704,0,0,0,0,0,0,-1.3792,-1.3789,-1.3788,-1.3775,-1.3772,-1.3761,-1.3755,-1.3753,-1.3748,-1.3747,-1.3734,-1.3732,-1.3724,-1.3716,-1.3714,-1.3713,-1.371,-1.3694,-1.3694,-1.3694,-1.3703,-1.3704,-1.3704,0,0,0,0,0,-1.3793,-1.3791,-1.3788,-1.3785,-1.377,-1.3761,-1.3759,-1.375,-1.3748,-1.3746,-1.3738,-1.3733,-1.3714,-1.3715,-1.3713,-1.3712,-1.3694,-1.3694,-1.3694,-1.3703,-1.3704,-1.3704,0,0,0,0,0,0,-1.3804,-1.379,-1.3786,-1.378,-1.3772,-1.3759,-1.3757,-1.3751,-1.3743,-1.3743,-1.3732,-1.3729,-1.3723,-1.3716,-1.3717,-1.3707,-1.3704,-1.3703,-1.3711,-1.3712,-1.3712,-1.3714,-1.371,0,0,0,0,0,-1.3806,-1.38,-1.3788,-1.3784,-1.378,-1.3769,-1.3765,-1.3759,-1.375,-1.3746,-1.3737,-1.3729,-1.3721,-1.3716,-1.3708,-1.3702,-1.3699,-1.37,-1.3701,-1.3701,-1.3701,-1.3697,-1.3697,-1.3694,-1.3694,-1.3694,0,0,-1.381,-1.3801,-1.3798,-1.3786,-1.3779,-1.3772,-1.3766,-1.376,-1.3755,-1.3745,-1.3737,-1.373,-1.372,-1.3713,-1.3709,-1.3707,-1.3701,-1.3701,-1.3702,-1.3701,-1.3697,-1.3697,-1.3697,-1.3694,-1.3694,-1.3694,0,0,-1.3813,-1.3806,-1.3802,-1.3795,-1.3784,-1.3777,-1.3776,-1.3764,-1.3759,-1.3751,-1.3743,-1.3737,-1.3724,-1.3716,-1.3711,-1.371,-1.3705,-1.3708,-1.3712,-1.3707,-1.3708,-1.3708,-1.3707,-1.3707,-1.3708,-1.3708,-1.3708,0,-1.3819,-1.381,-1.3801,-1.3795,-1.3789,-1.378,-1.3775,-1.3768,-1.3756,-1.3752,-1.375,-1.3733,-1.3725,-1.3716,-1.3716,-1.3712,-1.371,-1.371,-1.3708,-1.3708,-1.3708,-1.3708,-1.3708,-1.3708,-1.3708,-1.3708,-1.3708,0,-1.3817,-1.3811,-1.3809,-1.3797,-1.3791,-1.3786,-1.3775,-1.377,-1.3764,-1.3757,-1.3748,-1.3739,-1.3728,-1.3726,-1.372,-1.3715,-1.3714,-1.3711,-1.3707,-1.3709,-1.3708,-1.3708,-1.3709,-1.3709,-1.3709,-1.3709,0,0,-1.3828,-1.3811,-1.381,-1.3804,-1.3791,-1.3786,-1.3779,-1.3769,-1.3765,-1.3757,-1.3751,-1.374,-1.3736,-1.3729,-1.3723,-1.3719,-1.3719,-1.3715,-1.3715,-1.3716,-1.3712,-1.3715,-1.3715,-1.3715,-1.3715,-1.3715,-1.3713,0,-1.383,-1.3819,-1.381,-1.3802,-1.3795,-1.3786,-1.378,-1.3771,-1.3764,-1.3757,-1.3749,-1.3741,-1.3737,-1.3733,-1.3729,-1.372,-1.3718,-1.372,-1.3709,-1.3709,-1.3712,-1.3715,-1.3718,-1.3717,-1.3713,-1.3713,-1.3713,0,-1.383,-1.3822,-1.3813,-1.3801,-1.3797,-1.3793,-1.3782,-1.3776,-1.3765,-1.376,-1.3753,-1.3746,-1.3738,-1.3735,-1.3724,-1.3725,-1.372,-1.3715,-1.3715,-1.3714,-1.3711,-1.3713,-1.3717,-1.3717,-1.3712,-1.3712,-1.3712,0,-1.3839,-1.3825,-1.3818,-1.3813,-1.3798,-1.3795,-1.3788,-1.3778,-1.3772,-1.3763,-1.3759,-1.3749,-1.3743,-1.3736,-1.3725,-1.3724,-1.3715,-1.3712,-1.371,-1.3711,-1.3709,-1.3709,-1.3712,-1.3706,-1.3706,-1.3706,-1.3706,0,-1.3841,-1.3837,-1.3822,-1.3817,-1.3811,-1.38,-1.3795,-1.3787,-1.3777,-1.3771,-1.3762,-1.3756,-1.3743,-1.3735,-1.3727,-1.3719,-1.3717,-1.3712,-1.371,-1.3713,-1.3713,-1.3709,-1.3709,-1.3706,-1.3706,-1.3706,-1.3706,0,-1.385,-1.384,-1.3831,-1.3818,-1.3814,-1.381,-1.3798,-1.3793,-1.3785,-1.3777,-1.3774,-1.3761,-1.3752,-1.3741,-1.3728,-1.3722,-1.3714,-1.3711,-1.3718,-1.3717,-1.3716,-1.3716,-1.3716,-1.3715,-1.371,-1.371,-1.371,0,-1.3853,-1.3848,-1.3834,-1.3829,-1.3823,-1.3815,-1.3809,-1.3798,-1.3792,-1.3779,-1.3776,-1.3765,-1.3756,-1.3741,-1.3731,-1.372,-1.3717,-1.3717,-1.3715,-1.3718,-1.3716,-1.3717,-1.3716,-1.3718,-1.3718,-1.3718,-1.3718,0,-1.3858,-1.3853,-1.3845,-1.3835,-1.3828,-1.3819,-1.381,-1.3807,-1.3794,-1.3787,-1.3777,-1.377,-1.3757,-1.3746,-1.3734,-1.3727,-1.372,-1.3719,-1.3718,-1.3721,-1.3725,-1.3722,-1.3719,-1.3719,-1.3719,-1.3719,-1.3719,-1.3719,-1.3863,-1.3859,-1.3848,-1.3839,-1.3831,-1.3822,-1.3817,-1.3808,-1.38,-1.3788,-1.3781,-1.3771,-1.376,-1.3743,-1.3736,-1.3727,-1.3725,-1.3724,-1.3724,-1.3724,-1.3724,-1.3726,-1.3725,-1.3725,-1.3725,-1.3725,-1.3725,0,-1.3868,-1.386,-1.3852,-1.384,-1.3832,-1.3827,-1.3816,-1.381,-1.3802,-1.3792,-1.3783,-1.3771,-1.3761,-1.3749,-1.3737,-1.3733,-1.373,-1.373,-1.3731,-1.3729,-1.3727,-1.3729,-1.3733,-1.3733,-1.3733,-1.3733,-1.3733,-1.3733,-1.3869,-1.3862,-1.3855,-1.3843,-1.3835,-1.3825,-1.382,-1.3812,-1.3803,-1.3791,-1.3782,-1.3774,-1.3763,-1.3751,-1.3741,-1.3738,-1.3734,-1.3735,-1.3731,-1.373,-1.3729,-1.3728,-1.373,-1.3735,-1.3735,-1.3734,-1.3734,-1.3734]},{"header":{"parameterUnit":"m.s-1","parameterCategory":1,"la1":30.2991,"la2":30.254,"lo1":-89.0895,"lo2":-89.0444,"dy":0.0017,"dx":0.0017,"nx":28,"ny":28,"refTime":"2024-10-08T21:00:00:Z","depth":0,"parameterNumber":3,"parameterNumberName":"V-component_of_WINDS"},"data":[0,0,0,0,0,0,0,0,0,0,0,0,0,0,0,0,0,0,0,0,0,0,0,0,0,0,0,0,0,0,0,0,0,0,0,0,0,0,0,0,0,0,0,0,0,0,0,0,0,0,0,0,0,0,0,0,0,0,-4.0461,-4.0462,0,-4.0521,-4.0522,-4.0522,-4.0515,-4.0515,-4.0514,-4.0513,-4.057,-4.0573,-4.0575,0,0,0,0,0,0,0,0,0,0,0,0,0,-4.0339,-4.0341,-4.0461,-4.0462,-4.0463,-4.0521,-4.0522,-4.0522,-4.0516,-4.0514,-4.0513,-4.0512,-4.057,-4.0572,-4.0575,0,0,0,0,0,0,0,0,0,0,0,0,0,-4.0395,-4.0342,-4.0461,-4.0466,-4.0467,-4.0521,-4.0522,-4.0523,-4.0516,-4.0514,-4.0513,-4.0512,-4.0569,-4.0572,-4.0576,-4.0626,0,0,-4.0587,-4.0588,0,0,0,0,0,0,0,0,-4.0391,-4.0399,-4.0465,-4.0466,-4.0467,-4.0509,-4.05,-4.0557,-4.0516,-4.0497,-4.0513,-4.0511,-4.0551,-4.0556,-4.057,-4.0629,-4.0631,-4.0587,-4.0589,-4.0591,-4.0592,0,0,0,0,0,0,0,-4.0388,-4.0396,-4.0485,-4.0466,-4.0467,-4.0465,-4.0471,-4.0511,-4.0531,-4.0499,-4.0499,-4.0506,-4.0551,-4.0567,-4.0571,-4.0632,-4.0587,-4.059,-4.0592,-4.0594,-4.0738,-4.074,0,0,0,0,0,0,-4.0383,-4.0393,-4.0483,-4.0486,-4.0425,-4.0468,-4.0475,-4.0497,-4.0531,-4.0535,-4.0507,-4.0505,-4.0561,-4.0567,-4.0573,-4.0637,-4.0591,-4.0594,-4.0596,-4.0736,-4.0738,-4.074,0,0,0,0,0,0,-4.038,-4.0391,-4.048,-4.044,-4.0451,-4.0472,-4.0497,-4.0499,-4.0515,-4.0537,-4.054,-4.0519,-4.056,-4.0568,-4.0614,-4.0639,-4.0596,-4.0599,-4.0734,-4.0737,-4.0739,-4.0763,0,0,0,0,0,0,-4.0377,-4.039,-4.041,-4.044,-4.0453,-4.0521,-4.0498,-4.0501,-4.0521,-4.052,-4.0549,-4.0553,-4.056,-4.0609,-4.0618,-4.0643,-4.0602,-4.0732,-4.0735,-4.0738,-4.076,-4.0766,-4.0771,0,0,0,0,0,-4.0372,-4.0413,-4.0411,-4.0422,-4.0479,-4.0522,-4.0529,-4.0538,-4.0523,-4.0543,-4.0558,-4.0552,-4.0634,-4.0613,-4.0623,-4.065,-4.0731,-4.0735,-4.0738,-4.0758,-4.0765,-4.0771,0,0,0,0,0,0,-4.0383,-4.0417,-4.0415,-4.0467,-4.0492,-4.0521,-4.0546,-4.0545,-4.0573,-4.057,-4.0578,-4.0585,-4.0632,-4.0645,-4.0621,-4.0702,-4.068,-4.0686,-4.0692,-4.0699,-4.0704,-4.0701,-4.0605,0,0,0,0,0,-4.0391,-4.0425,-4.0452,-4.0495,-4.0508,-4.0525,-4.0544,-4.0549,-4.0574,-4.0585,-4.0603,-4.0627,-4.0659,-4.0679,-4.0709,-4.0762,-4.0769,-4.0785,-4.079,-4.0795,-4.08,-4.0831,-4.0839,-4.0752,-4.0752,-4.0752,0,0,-4.0409,-4.0432,-4.0452,-4.0498,-4.0518,-4.0552,-4.0534,-4.057,-4.0596,-4.059,-4.0635,-4.0649,-4.0677,-4.0727,-4.0749,-4.0739,-4.0826,-4.08,-4.0803,-4.0806,-4.0836,-4.0844,-4.0851,-4.0755,-4.0754,-4.0754,0,0,-4.0459,-4.0479,-4.0519,-4.0539,-4.0571,-4.0582,-4.0591,-4.0621,-4.0631,-4.0677,-4.0674,-4.0703,-4.0757,-4.0778,-4.0795,-4.0855,-4.0851,-4.0864,-4.0893,-4.0923,-4.093,-4.0936,-4.0959,-4.0967,-4.0869,-4.0869,-4.0869,0,-4.0477,-4.0529,-4.0538,-4.0576,-4.0597,-4.0595,-4.0635,-4.0654,-4.0693,-4.0707,-4.0695,-4.0764,-4.0782,-4.0838,-4.0853,-4.0867,-4.0878,-4.0862,-4.0928,-4.0935,-4.0941,-4.0963,-4.0971,-4.0871,-4.0871,-4.0871,-4.087,0,-4.0551,-4.0587,-4.0615,-4.0655,-4.0678,-4.0717,-4.0732,-4.0754,-4.0757,-4.0769,-4.0817,-4.0839,-4.0874,-4.0887,-4.0889,-4.0944,-4.0937,-4.0927,-4.0906,-4.095,-4.0972,-4.098,-4.0873,-4.0873,-4.0872,-4.0872,0,0,-4.0609,-4.0655,-4.0665,-4.0684,-4.0719,-4.0747,-4.0786,-4.0822,-4.0842,-4.0869,-4.0902,-4.0949,-4.094,-4.096,-4.0964,-4.099,-4.1039,-4.0977,-4.0977,-4.0989,-4.1102,-4.1112,-4.1121,-4.1036,-4.1037,-4.1038,-4.1101,0,-4.0664,-4.0735,-4.0745,-4.0806,-4.0841,-4.084,-4.0873,-4.0898,-4.0911,-4.0942,-4.0955,-4.0989,-4.0974,-4.0986,-4.1012,-4.1027,-4.1062,-4.1023,-4.1067,-4.1068,-4.1062,-4.1132,-4.1141,-4.1199,-4.1109,-4.111,-4.1111,0,-4.0738,-4.077,-4.0836,-4.0868,-4.0883,-4.0913,-4.0949,-4.0977,-4.1006,-4.1013,-4.1037,-4.1038,-4.1078,-4.1054,-4.111,-4.1083,-4.1102,-4.1112,-4.1114,-4.112,-4.1094,-4.1141,-4.1218,-4.1227,-4.1124,-4.1123,-4.1122,0,-4.0777,-4.0835,-4.0883,-4.0899,-4.0937,-4.0959,-4.0976,-4.1003,-4.1025,-4.1055,-4.1069,-4.1103,-4.1122,-4.1148,-4.1158,-4.114,-4.1214,-4.1191,-4.1222,-4.1222,-4.1239,-4.1238,-4.1321,-4.1248,-4.1248,-4.1247,-4.1247,0,-4.0839,-4.0879,-4.0902,-4.0931,-4.0977,-4.0988,-4.1032,-4.1048,-4.1073,-4.1105,-4.1105,-4.1135,-4.1146,-4.1178,-4.1186,-4.1232,-4.124,-4.1247,-4.1249,-4.1249,-4.1248,-4.1262,-4.1259,-4.125,-4.1249,-4.1249,-4.1248,0,-4.089,-4.0906,-4.0959,-4.0992,-4.1001,-4.1033,-4.1061,-4.1089,-4.1102,-4.1143,-4.1153,-4.1173,-4.1211,-4.1224,-4.1269,-4.1275,-4.1329,-4.1326,-4.132,-4.1321,-4.1353,-4.135,-4.1449,-4.1463,-4.1379,-4.1379,-4.138,0,-4.0929,-4.0961,-4.0998,-4.1021,-4.1039,-4.1075,-4.1098,-4.111,-4.1134,-4.1169,-4.1194,-4.1232,-4.1263,-4.1323,-4.1341,-4.1376,-4.1376,-4.1408,-4.1381,-4.138,-4.1379,-4.1378,-4.1382,-4.1413,-4.1414,-4.1415,-4.1416,0,-4.0998,-4.1005,-4.1039,-4.1077,-4.1106,-4.1135,-4.1164,-4.1182,-4.1198,-4.1224,-4.1264,-4.1289,-4.1336,-4.1374,-4.141,-4.1426,-4.1424,-4.1424,-4.1433,-4.1434,-4.143,-4.1435,-4.1336,-4.1422,-4.1421,-4.1421,-4.142,-4.142,-4.1046,-4.1076,-4.1107,-4.1146,-4.1169,-4.1196,-4.1226,-4.1243,-4.1277,-4.1318,-4.1322,-4.1365,-4.1393,-4.1442,-4.146,-4.1494,-4.1485,-4.1498,-4.1502,-4.1505,-4.1509,-4.1423,-4.15,-4.15,-4.15,-4.1499,-4.1499,0,-4.1117,-4.1138,-4.1173,-4.1215,-4.1245,-4.1242,-4.1273,-4.1299,-4.1338,-4.1365,-4.1397,-4.1443,-4.148,-4.1502,-4.1539,-4.1562,-4.1562,-4.1572,-4.1571,-4.1575,-4.1514,-4.1503,-4.1571,-4.1571,-4.1571,-4.1571,-4.1571,-4.1571,-4.1158,-4.1208,-4.1219,-4.1281,-4.13,-4.1344,-4.1363,-4.1389,-4.1411,-4.1464,-4.1495,-4.151,-4.1535,-4.1574,-4.1608,-4.1614,-4.1628,-4.1639,-4.1644,-4.1586,-4.1579,-4.1572,-4.1562,-4.1642,-4.1642,-4.1703,-4.1703,-4.1704]}]]